Time,TemperatureF,DewpointF,PressureIn,WindDirection,WindDirectionDegrees,WindSpeedMPH,WindSpeedGustMPH,Humidity,HourlyPrecipIn,Conditions,Clouds,dailyrainin,SoftwareType,DateUTC
2013-07-30 00:03:00,54.8,52.0,30.00,East,94,0.0,1.0,89,0.00,,,0.00,weatherlink.com 1.10,2013-07-30 07:03:00,
2013-07-30 00:19:00,54.9,52.0,30.01,East,94,0.0,1.0,89,0.00,,,0.00,weatherlink.com 1.10,2013-07-30 07:19:00,
2013-07-30 00:34:00,55.0,52.0,30.01,ENE,74,0.0,2.0,89,0.00,,,0.00,weatherlink.com 1.10,2013-07-30 07:34:00,
2013-07-30 00:49:00,55.1,52.0,30.01,NE,42,0.0,2.0,89,0.00,,,0.00,weatherlink.com 1.10,2013-07-30 07:49:00,
2013-07-30 01:04:00,55.2,52.0,30.01,NE,41,0.0,2.0,89,0.00,,,0.00,weatherlink.com 1.10,2013-07-30 08:04:00,
2013-07-30 01:19:00,55.1,52.0,30.01,NE,41,0.0,1.0,89,0.00,,,0.00,weatherlink.com 1.10,2013-07-30 08:19:00,
2013-07-30 01:34:00,55.2,52.0,30.01,NE,41,0.0,1.0,89,0.00,,,0.00,weatherlink.com 1.10,2013-07-30 08:34:00,
2013-07-30 01:49:00,55.1,52.0,30.01,NE,41,0.0,1.0,90,0.00,,,0.00,weatherlink.com 1.10,2013-07-30 08:49:00,
2013-07-30 02:04:00,55.0,52.0,30.01,NE,36,0.0,2.0,90,0.00,,,0.00,weatherlink.com 1.10,2013-07-30 09:04:00,
2013-07-30 02:19:00,55.0,52.0,30.01,NE,36,0.0,1.0,90,0.00,,,0.00,weatherlink.com 1.10,2013-07-30 09:19:00,
2013-07-30 02:34:00,55.0,52.0,30.01,NE,36,0.0,2.0,90,0.00,,,0.00,weatherlink.com 1.10,2013-07-30 09:34:00,
2013-07-30 02:49:00,55.0,52.0,30.02,NE,36,0.0,1.0,90,0.00,,,0.00,weatherlink.com 1.10,2013-07-30 09:49:00,
2013-07-30 03:04:00,55.0,52.0,30.02,NE,36,0.0,2.0,90,0.00,,,0.00,weatherlink.com 1.10,2013-07-30 10:04:00,
2013-07-30 03:19:00,55.0,52.0,30.02,NE,36,0.0,1.0,90,0.00,,,0.00,weatherlink.com 1.10,2013-07-30 10:19:00,
2013-07-30 03:34:00,54.9,52.0,30.02,NE,36,0.0,0.0,90,0.00,,,0.00,weatherlink.com 1.10,2013-07-30 10:34:00,
2013-07-30 03:49:00,55.0,53.0,30.02,NE,36,0.0,1.0,91,0.00,,,0.00,weatherlink.com 1.10,2013-07-30 10:49:00,
2013-07-30 04:04:00,54.8,52.0,30.02,NE,36,0.0,0.0,91,0.00,,,0.00,weatherlink.com 1.10,2013-07-30 11:04:00,
2013-07-30 04:19:00,54.5,52.0,30.02,NE,36,0.0,1.0,91,0.00,,,0.00,weatherlink.com 1.10,2013-07-30 11:19:00,
2013-07-30 04:34:00,54.4,52.0,30.01,NE,36,0.0,1.0,91,0.00,,,0.00,weatherlink.com 1.10,2013-07-30 11:34:00,
2013-07-30 04:49:00,54.3,52.0,30.02,NE,36,0.0,1.0,92,0.00,,,0.00,weatherlink.com 1.10,2013-07-30 11:49:00,
2013-07-30 05:04:00,54.2,52.0,30.02,NE,36,0.0,0.0,92,0.00,,,0.00,weatherlink.com 1.10,2013-07-30 12:04:00,
2013-07-30 05:19:00,54.2,52.0,30.03,NE,36,0.0,0.0,93,0.00,,,0.00,weatherlink.com 1.10,2013-07-30 12:19:00,
2013-07-30 05:34:00,54.1,52.0,30.03,NE,36,0.0,0.0,92,0.00,,,0.00,weatherlink.com 1.10,2013-07-30 12:34:00,
2013-07-30 05:49:00,54.0,52.0,30.03,NE,36,0.0,0.0,93,0.00,,,0.00,weatherlink.com 1.10,2013-07-30 12:49:00,
2013-07-30 06:04:00,53.9,52.0,30.03,NE,36,0.0,0.0,92,0.00,,,0.00,weatherlink.com 1.10,2013-07-30 13:04:00,
2013-07-30 06:19:00,53.8,52.0,30.04,NE,36,0.0,0.0,92,0.00,,,0.00,weatherlink.com 1.10,2013-07-30 13:19:00,
2013-07-30 06:34:00,53.7,52.0,30.04,NE,36,0.0,1.0,93,0.00,,,0.00,weatherlink.com 1.10,2013-07-30 13:34:00,
2013-07-30 06:49:00,53.7,52.0,30.04,NE,36,0.0,0.0,93,0.00,,,0.00,weatherlink.com 1.10,2013-07-30 13:49:00,
2013-07-30 07:04:00,53.8,52.0,30.05,NE,36,0.0,0.0,93,0.00,,,0.00,weatherlink.com 1.10,2013-07-30 14:04:00,
2013-07-30 07:19:00,53.9,52.0,30.05,NE,36,0.0,0.0,92,0.00,,,0.00,weatherlink.com 1.10,2013-07-30 14:19:00,
2013-07-30 07:34:00,54.0,52.0,30.06,NE,36,0.0,1.0,92,0.00,,,0.00,weatherlink.com 1.10,2013-07-30 14:34:00,
2013-07-30 08:04:00,54.5,52.0,30.07,NE,36,1.0,2.0,92,0.00,,,0.00,weatherlink.com 1.10,2013-07-30 15:04:00,
2013-07-30 08:19:00,54.6,52.0,30.07,NE,36,0.0,1.0,91,0.00,,,0.00,weatherlink.com 1.10,2013-07-30 15:19:00,
2013-07-30 08:34:00,54.7,52.0,30.08,NE,36,0.0,1.0,91,0.00,,,0.00,weatherlink.com 1.10,2013-07-30 15:34:00,
2013-07-30 08:49:00,55.1,52.0,30.08,NE,36,0.0,1.0,90,0.00,,,0.00,weatherlink.com 1.10,2013-07-30 15:49:00,
2013-07-30 09:04:00,55.6,53.0,30.08,NE,36,0.0,2.0,89,0.00,,,0.00,weatherlink.com 1.10,2013-07-30 16:04:00,
2013-07-30 09:19:00,55.7,52.0,30.08,SSW,204,0.0,3.0,88,0.00,,,0.00,weatherlink.com 1.10,2013-07-30 16:19:00,
2013-07-30 09:34:00,56.1,53.0,30.08,SSW,205,1.0,2.0,88,0.00,,,0.00,weatherlink.com 1.10,2013-07-30 16:34:00,
2013-07-30 09:49:00,56.4,53.0,30.08,WSW,242,1.0,3.0,87,0.00,,,0.00,weatherlink.com 1.10,2013-07-30 16:49:00,
2013-07-30 10:04:00,56.9,53.0,30.08,SW,226,1.0,2.0,86,0.00,,,0.00,weatherlink.com 1.10,2013-07-30 17:04:00,
2013-07-30 10:19:00,57.2,53.0,30.08,SW,234,0.0,3.0,86,0.00,,,0.00,weatherlink.com 1.10,2013-07-30 17:19:00,
2013-07-30 10:34:00,58.1,54.0,30.08,WSW,252,1.0,4.0,85,0.00,,,0.00,weatherlink.com 1.10,2013-07-30 17:34:00,
2013-07-30 10:49:00,58.9,54.0,30.08,SW,218,0.0,5.0,83,0.00,,,0.00,weatherlink.com 1.10,2013-07-30 17:49:00,
2013-07-30 11:04:00,60.2,54.0,30.08,SW,219,1.0,4.0,81,0.00,,,0.00,weatherlink.com 1.10,2013-07-30 18:04:00,
2013-07-30 11:19:00,60.9,55.0,30.08,SW,224,3.0,4.0,81,0.00,,,0.00,weatherlink.com 1.10,2013-07-30 18:19:00,
2013-07-30 11:34:00,62.5,56.0,30.08,SE,143,1.0,7.0,78,0.00,,,0.00,weatherlink.com 1.10,2013-07-30 18:34:00,
2013-07-30 11:50:00,64.1,56.0,30.08,SW,225,1.0,5.0,74,0.00,,,0.00,weatherlink.com 1.10,2013-07-30 18:50:00,
2013-07-30 12:05:00,64.9,56.0,30.08,SSW,200,0.0,5.0,73,0.00,,,0.00,weatherlink.com 1.10,2013-07-30 19:05:00,
2013-07-30 12:20:00,66.7,57.0,30.07,North,355,1.0,4.0,72,0.00,,,0.00,weatherlink.com 1.10,2013-07-30 19:20:00,
2013-07-30 12:35:00,67.6,57.0,30.07,SE,130,0.0,6.0,68,0.00,,,0.00,weatherlink.com 1.10,2013-07-30 19:35:00,
2013-07-30 12:50:00,68.6,57.0,30.07,SE,133,2.0,4.0,67,0.00,,,0.00,weatherlink.com 1.10,2013-07-30 19:50:00,
2013-07-30 13:05:00,69.2,58.0,30.06,East,94,0.0,4.0,67,0.00,,,0.00,weatherlink.com 1.10,2013-07-30 20:05:00,
2013-07-30 13:20:00,70.6,59.0,30.05,North,350,0.0,6.0,67,0.00,,,0.00,weatherlink.com 1.10,2013-07-30 20:20:00,
2013-07-30 13:35:00,71.9,60.0,30.05,North,5,0.0,5.0,66,0.00,,,0.00,weatherlink.com 1.10,2013-07-30 20:35:00,
2013-07-30 13:50:00,72.3,59.0,30.04,SSE,163,2.0,7.0,63,0.00,,,0.00,weatherlink.com 1.10,2013-07-30 20:50:00,
2013-07-30 14:05:00,73.2,59.0,30.04,SSW,205,2.0,6.0,62,0.00,,,0.00,weatherlink.com 1.10,2013-07-30 21:05:00,
2013-07-30 14:20:00,74.1,60.0,30.04,SSW,213,1.0,5.0,61,0.00,,,0.00,weatherlink.com 1.10,2013-07-30 21:20:00,
2013-07-30 14:35:00,74.8,60.0,30.04,SSE,168,1.0,5.0,60,0.00,,,0.00,weatherlink.com 1.10,2013-07-30 21:35:00,
2013-07-30 14:50:00,76.2,61.0,30.03,SSW,211,0.0,6.0,60,0.00,,,0.00,weatherlink.com 1.10,2013-07-30 21:50:00,
2013-07-30 15:05:00,77.2,61.0,30.03,NW,318,0.0,4.0,58,0.00,,,0.00,weatherlink.com 1.10,2013-07-30 22:05:00,
2013-07-30 15:20:00,77.5,62.0,30.02,North,9,0.0,4.0,59,0.00,,,0.00,weatherlink.com 1.10,2013-07-30 22:20:00,
2013-07-30 15:35:00,77.1,60.0,30.02,SW,222,1.0,4.0,56,0.00,,,0.00,weatherlink.com 1.10,2013-07-30 22:35:00,
2013-07-30 15:50:00,76.8,60.0,30.02,NW,304,0.0,5.0,57,0.00,,,0.00,weatherlink.com 1.10,2013-07-30 22:50:00,
2013-07-30 16:05:00,76.9,60.0,30.01,NNW,328,1.0,5.0,57,0.00,,,0.00,weatherlink.com 1.10,2013-07-30 23:05:00,
2013-07-30 16:20:00,77.7,61.0,30.01,West,278,0.0,4.0,56,0.00,,,0.00,weatherlink.com 1.10,2013-07-30 23:20:00,
2013-07-30 16:35:00,78.4,60.0,30.01,SE,134,0.0,4.0,54,0.00,,,0.00,weatherlink.com 1.10,2013-07-30 23:35:00,
2013-07-30 16:50:00,78.2,60.0,30.00,South,176,0.0,4.0,53,0.00,,,0.00,weatherlink.com 1.10,2013-07-30 23:50:00,
2013-07-30 17:05:00,77.9,60.0,30.00,NNW,348,2.0,4.0,55,0.00,,,0.00,weatherlink.com 1.10,2013-07-31 00:05:00,
2013-07-30 17:20:00,77.3,59.0,30.00,East,86,0.0,5.0,54,0.00,,,0.00,weatherlink.com 1.10,2013-07-31 00:20:00,
2013-07-30 17:35:00,77.3,59.0,30.00,North,360,2.0,4.0,54,0.00,,,0.00,weatherlink.com 1.10,2013-07-31 00:35:00,
2013-07-30 17:50:00,76.7,58.0,30.00,WSW,246,2.0,5.0,52,0.00,,,0.00,weatherlink.com 1.10,2013-07-31 00:50:00,
2013-07-30 18:05:00,75.6,57.0,30.00,WNW,294,2.0,3.0,53,0.00,,,0.00,weatherlink.com 1.10,2013-07-31 01:05:00,
2013-07-30 18:20:00,74.7,57.0,30.00,SE,146,0.0,3.0,54,0.00,,,0.00,weatherlink.com 1.10,2013-07-31 01:20:00,
2013-07-30 18:35:00,73.8,57.0,30.00,SW,219,0.0,3.0,55,0.00,,,0.00,weatherlink.com 1.10,2013-07-31 01:35:00,
2013-07-30 18:50:00,71.8,56.0,30.00,North,9,0.0,3.0,57,0.00,,,0.00,weatherlink.com 1.10,2013-07-31 01:50:00,
2013-07-30 19:05:00,69.8,56.0,30.00,NW,323,0.0,4.0,61,0.00,,,0.00,weatherlink.com 1.10,2013-07-31 02:05:00,
2013-07-30 19:20:00,68.1,55.0,30.00,WNW,286,0.0,3.0,64,0.00,,,0.00,weatherlink.com 1.10,2013-07-31 02:20:00,
2013-07-30 19:35:00,66.5,55.0,30.00,SSW,201,0.0,3.0,66,0.00,,,0.00,weatherlink.com 1.10,2013-07-31 02:35:00,
2013-07-30 19:50:00,65.0,54.0,30.01,SW,234,0.0,1.0,68,0.00,,,0.00,weatherlink.com 1.10,2013-07-31 02:50:00,
2013-07-30 20:05:00,63.0,53.0,30.01,West,275,0.0,2.0,71,0.00,,,0.00,weatherlink.com 1.10,2013-07-31 03:05:00,
2013-07-30 20:20:00,60.7,53.0,30.01,SW,228,0.0,1.0,75,0.00,,,0.00,weatherlink.com 1.10,2013-07-31 03:20:00,
2013-07-30 20:35:00,58.9,52.0,30.02,SW,229,0.0,1.0,78,0.00,,,0.00,weatherlink.com 1.10,2013-07-31 03:35:00,
2013-07-30 20:50:00,57.6,52.0,30.02,West,268,0.0,1.0,81,0.00,,,0.00,weatherlink.com 1.10,2013-07-31 03:50:00,
2013-07-30 21:05:00,56.6,52.0,30.02,SW,229,1.0,2.0,83,0.00,,,0.00,weatherlink.com 1.10,2013-07-31 04:05:00,
2013-07-30 21:20:00,55.7,51.0,30.02,SW,221,0.0,1.0,85,0.00,,,0.00,weatherlink.com 1.10,2013-07-31 04:20:00,
2013-07-30 21:36:00,55.0,51.0,30.03,SW,221,0.0,2.0,86,0.00,,,0.00,weatherlink.com 1.10,2013-07-31 04:36:00,
2013-07-30 21:51:00,54.4,51.0,30.03,SW,221,0.0,0.0,88,0.00,,,0.00,weatherlink.com 1.10,2013-07-31 04:51:00,
2013-07-30 22:06:00,54.0,51.0,30.03,SW,221,0.0,1.0,88,0.00,,,0.00,weatherlink.com 1.10,2013-07-31 05:06:00,
2013-07-30 22:21:00,53.6,51.0,30.03,SW,221,0.0,1.0,90,0.00,,,0.00,weatherlink.com 1.10,2013-07-31 05:21:00,
2013-07-30 22:36:00,53.3,51.0,30.04,SW,221,0.0,0.0,91,0.00,,,0.00,weatherlink.com 1.10,2013-07-31 05:36:00,
2013-07-30 22:51:00,53.4,51.0,30.03,SW,221,0.0,2.0,92,0.00,,,0.00,weatherlink.com 1.10,2013-07-31 05:51:00,
2013-07-30 23:06:00,53.6,51.0,30.04,SW,221,0.0,1.0,92,0.00,,,0.00,weatherlink.com 1.10,2013-07-31 06:06:00,
2013-07-30 23:21:00,53.9,51.0,30.04,SW,221,0.0,3.0,91,0.00,,,0.00,weatherlink.com 1.10,2013-07-31 06:21:00,
2013-07-30 23:36:00,53.9,51.0,30.04,SW,221,0.0,2.0,91,0.00,,,0.00,weatherlink.com 1.10,2013-07-31 06:36:00,
2013-07-30 23:51:00,53.9,51.0,30.05,South,190,1.0,2.0,91,0.00,,,0.00,weatherlink.com 1.10,2013-07-31 06:51:00,